[[{"header":{"parameterUnit":"m.s-1","parameterCategory":1,"la1":30.2991,"la2":30.254,"lo1":-89.0895,"lo2":-89.0444,"dy":0.0017,"dx":0.0017,"nx":28,"ny":28,"refTime":"2025-07-19T03:00:00:Z","depth":0,"parameterNumber":2,"parameterNumberName":"U-component_of_WINDS"},"data":[0,0,0,0,0,0,0,0,0,0,0,0,0,0,0,0,0,0,0,0,0,0,0,0,0,0,0,0,0,0,0,0,0,0,0,0,0,0,0,0,0,0,0,0,0,0,0,0,0,0,0,0,0,0,0,0,0,0,2.7621,2.7622,0,2.7698,2.7699,2.77,2.768,2.7679,2.7677,2.7676,2.7752,2.7755,2.7759,0,0,0,0,0,0,0,0,0,0,0,0,0,2.7452,2.7455,2.7621,2.7622,2.7623,2.7698,2.7699,2.77,2.768,2.7678,2.7677,2.7675,2.7751,2.7755,2.7759,0,0,0,0,0,0,0,0,0,0,0,0,0,2.7526,2.7456,2.7621,2.7622,2.7623,2.7698,2.7699,2.77,2.7681,2.7678,2.7676,2.7674,2.7749,2.7754,2.776,2.7837,0,0,2.7775,2.7778,0,0,0,0,0,0,0,0,2.7522,2.7533,2.7621,2.7622,2.7623,2.7677,2.7667,2.7746,2.7681,2.7659,2.7676,2.7673,2.7729,2.7735,2.7755,2.784,2.7844,2.7776,2.7779,2.7781,2.7783,0,0,0,0,0,0,0,2.7517,2.7529,2.7651,2.7622,2.7624,2.7617,2.7625,2.7682,2.7705,2.766,2.7659,2.7669,2.7729,2.775,2.7756,2.7845,2.7776,2.778,2.7783,2.7785,2.7992,2.7994,0,0,0,0,0,0,2.7511,2.7525,2.7649,2.7653,2.7566,2.7622,2.7631,2.7662,2.7705,2.7709,2.7671,2.7668,2.7742,2.775,2.7759,2.7848,2.7781,2.7786,2.7789,2.799,2.7993,2.7995,0,0,0,0,0,0,2.7508,2.7523,2.7646,2.7589,2.7604,2.7627,2.7662,2.7665,2.7686,2.7712,2.7716,2.7688,2.7741,2.7752,2.7817,2.7851,2.7788,2.7793,2.7987,2.7991,2.7994,2.803,0,0,0,0,0,0,2.7503,2.7522,2.7553,2.759,2.7607,2.7704,2.7664,2.7668,2.7695,2.7692,2.773,2.7734,2.774,2.7809,2.7822,2.7857,2.7797,2.7984,2.7988,2.7993,2.8026,2.8034,2.8042,0,0,0,0,0,2.7497,2.756,2.7554,2.7569,2.7647,2.7706,2.7715,2.7722,2.7698,2.7728,2.7744,2.7733,2.7846,2.7816,2.783,2.7867,2.7982,2.7987,2.7992,2.8022,2.8033,2.8042,0,0,0,0,0,0,2.7526,2.7565,2.7559,2.7636,2.7668,2.7702,2.7741,2.7733,2.7772,2.7767,2.7772,2.7781,2.7846,2.7864,2.783,2.7942,2.791,2.7918,2.7928,2.7938,2.7946,2.7939,2.7801,0,0,0,0,0,2.7542,2.7588,2.7619,2.7684,2.77,2.7718,2.7744,2.7745,2.7778,2.7791,2.7812,2.7843,2.7885,2.7913,2.7954,2.8029,2.8034,2.8061,2.8069,2.8075,2.8082,2.8119,2.8129,2.8013,2.8013,2.8013,0,0,2.7574,2.7601,2.763,2.769,2.7715,2.776,2.7729,2.7779,2.7812,2.7798,2.786,2.7877,2.7911,2.798,2.8012,2.7997,2.8115,2.8082,2.8087,2.809,2.8125,2.8136,2.8146,2.8016,2.8016,2.8015,0,0,2.7655,2.7682,2.7737,2.7762,2.7799,2.781,2.7823,2.7858,2.7868,2.7931,2.792,2.7959,2.8032,2.8056,2.8078,2.8164,2.8153,2.8177,2.8218,2.8254,2.8263,2.8271,2.8298,2.8308,2.8184,2.8184,2.8184,0,2.769,2.7759,2.7766,2.7816,2.7841,2.7831,2.7885,2.7908,2.7957,2.7974,2.7956,2.8045,2.8069,2.8141,2.8162,2.8181,2.8193,2.8172,2.8261,2.827,2.8277,2.8303,2.8314,2.8187,2.8187,2.8186,2.8186,0,2.7798,2.7846,2.7886,2.7932,2.7962,2.8014,2.8026,2.8055,2.8054,2.8066,2.8127,2.8154,2.8198,2.8215,2.8216,2.8287,2.8276,2.826,2.8228,2.8291,2.8315,2.8325,2.819,2.8189,2.8189,2.8188,0,0,2.79,2.7948,2.7962,2.7981,2.802,2.8056,2.8106,2.8149,2.8172,2.8206,2.8245,2.8306,2.8291,2.8315,2.8318,2.8349,2.8411,2.8329,2.833,2.834,2.8487,2.8496,2.8508,2.8405,2.8407,2.8409,2.8483,0,2.7982,2.8071,2.8076,2.8156,2.8197,2.8187,2.823,2.8257,2.8269,2.8305,2.8318,2.8359,2.8338,2.8352,2.8383,2.8397,2.844,2.8392,2.8439,2.8441,2.8428,2.8521,2.8532,2.8601,2.8493,2.8494,2.8496,0,2.809,2.8125,2.8208,2.8238,2.8255,2.8294,2.8332,2.8367,2.8397,2.8403,2.8429,2.8426,2.8474,2.8441,2.8506,2.8473,2.8492,2.8502,2.8505,2.8507,2.847,2.8523,2.8624,2.8633,2.8511,2.851,2.8509,0,2.8151,2.822,2.8277,2.8294,2.8331,2.8358,2.8374,2.8402,2.8426,2.8459,2.8474,2.8512,2.8532,2.856,2.8566,2.8543,2.863,2.8599,2.8633,2.8633,2.865,2.8649,2.8752,2.8668,2.8668,2.8668,2.8667,0,2.824,2.829,2.8304,2.834,2.8394,2.84,2.8453,2.8468,2.8492,2.8527,2.8522,2.8555,2.8562,2.8597,2.8602,2.8652,2.8662,2.8666,2.8666,2.8665,2.8664,2.8676,2.867,2.867,2.867,2.8669,2.8669,0,2.8317,2.8329,2.839,2.842,2.8428,2.8467,2.8491,2.8523,2.8534,2.8579,2.859,2.8606,2.8645,2.8655,2.8702,2.8705,2.8764,2.8761,2.8754,2.8752,2.8785,2.8781,2.8898,2.8912,2.8821,2.8822,2.8823,0,2.8372,2.841,2.8443,2.8466,2.8484,2.8522,2.8546,2.8552,2.8577,2.8612,2.8639,2.8678,2.8709,2.8773,2.8787,2.8823,2.8818,2.8857,2.8824,2.882,2.8815,2.8811,2.8813,2.8862,2.8863,2.8864,2.8865,0,2.8466,2.8469,2.8505,2.8541,2.857,2.8599,2.8627,2.8646,2.8655,2.8683,2.8724,2.8748,2.8795,2.8832,2.8867,2.8882,2.8874,2.8876,2.8885,2.8882,2.8875,2.8876,2.8767,2.8872,2.8872,2.8871,2.8871,2.887,2.8531,2.8563,2.859,2.8628,2.865,2.8675,2.8705,2.8719,2.8753,2.8792,2.8793,2.8836,2.8861,2.8907,2.8924,2.8956,2.8944,2.8958,2.8961,2.8964,2.8965,2.8872,2.8963,2.8963,2.8962,2.8962,2.8962,0,2.8622,2.8638,2.8674,2.8712,2.8741,2.8732,2.8761,2.8786,2.8824,2.8848,2.8878,2.8923,2.8958,2.8975,2.901,2.9032,2.9028,2.904,2.9037,2.904,2.8976,2.8963,2.9042,2.9042,2.9042,2.9042,2.9042,2.9042,2.8672,2.8724,2.873,2.8791,2.8807,2.8849,2.8866,2.8888,2.8907,2.8957,2.8986,2.8997,2.9018,2.9053,2.9084,2.9088,2.9099,2.9112,2.9114,2.9053,2.9045,2.9037,2.9025,2.9116,2.9116,2.9175,2.9176,2.9176]},{"header":{"parameterUnit":"m.s-1","parameterCategory":1,"la1":30.2991,"la2":30.254,"lo1":-89.0895,"lo2":-89.0444,"dy":0.0017,"dx":0.0017,"nx":28,"ny":28,"refTime":"2025-07-19T03:00:00:Z","depth":0,"parameterNumber":3,"parameterNumberName":"V-component_of_WINDS"},"data":[0,0,0,0,0,0,0,0,0,0,0,0,0,0,0,0,0,0,0,0,0,0,0,0,0,0,0,0,0,0,0,0,0,0,0,0,0,0,0,0,0,0,0,0,0,0,0,0,0,0,0,0,0,0,0,0,0,0,2.8664,2.8665,0,2.8766,2.8767,2.8768,2.8747,2.8745,2.8743,2.8741,2.8845,2.885,2.8854,0,0,0,0,0,0,0,0,0,0,0,0,0,2.845,2.8454,2.8664,2.8665,2.8667,2.8766,2.8767,2.8768,2.8747,2.8745,2.8742,2.874,2.8844,2.8849,2.8855,0,0,0,0,0,0,0,0,0,0,0,0,0,2.8547,2.8456,2.8664,2.8668,2.8669,2.8765,2.8767,2.8769,2.8747,2.8745,2.8742,2.8739,2.8842,2.8849,2.8855,2.8954,0,0,2.8876,2.8879,0,0,0,0,0,0,0,0,2.8541,2.8554,2.8666,2.8668,2.8669,2.8741,2.873,2.8831,2.8748,2.8718,2.8741,2.8738,2.8813,2.8822,2.8847,2.8959,2.8963,2.8877,2.8881,2.8884,2.8886,0,0,0,0,0,0,0,2.8535,2.855,2.8704,2.8668,2.867,2.8664,2.8675,2.8749,2.878,2.872,2.8719,2.8731,2.8813,2.8841,2.8849,2.8965,2.8877,2.8883,2.8887,2.8889,2.916,2.9163,0,0,0,0,0,0,2.8526,2.8545,2.8701,2.8707,2.8597,2.867,2.8682,2.8721,2.8779,2.8785,2.8733,2.873,2.883,2.8841,2.8853,2.897,2.8884,2.889,2.8894,2.9157,2.916,2.9164,0,0,0,0,0,0,2.8522,2.8541,2.8697,2.8626,2.8645,2.8677,2.872,2.8724,2.8751,2.8789,2.8794,2.8756,2.8829,2.8843,2.8928,2.8974,2.8893,2.8899,2.9153,2.9158,2.9162,2.9207,0,0,0,0,0,0,2.8516,2.8539,2.8577,2.8627,2.8649,2.8771,2.8723,2.8728,2.8763,2.8759,2.8811,2.8817,2.8827,2.8918,2.8935,2.8982,2.8905,2.9149,2.9155,2.9161,2.9202,2.9213,2.9222,0,0,0,0,0,2.8508,2.8587,2.8579,2.8598,2.8697,2.8774,2.8787,2.8797,2.8767,2.8805,2.8829,2.8816,2.8966,2.8927,2.8946,2.8995,2.9146,2.9153,2.916,2.9197,2.9211,2.9222,0,0,0,0,0,0,2.8542,2.8593,2.8586,2.8682,2.8724,2.877,2.8819,2.8811,2.8862,2.8856,2.8866,2.8878,2.8964,2.8988,2.8944,2.9092,2.9052,2.9063,2.9074,2.9087,2.9097,2.9089,2.891,0,0,0,0,0,2.8561,2.8619,2.866,2.8741,2.8762,2.8787,2.8821,2.8825,2.8868,2.8886,2.8916,2.8959,2.9015,2.9052,2.9107,2.9205,2.9215,2.9248,2.9258,2.9267,2.9276,2.9328,2.9343,2.9187,2.9187,2.9186,0,0,2.86,2.8635,2.8671,2.8749,2.8782,2.8841,2.8802,2.8867,2.8911,2.8896,2.8977,2.9001,2.9049,2.914,2.9182,2.9163,2.9321,2.9275,2.9282,2.9287,2.9337,2.9351,2.9364,2.9191,2.919,2.919,0,0,2.8702,2.8735,2.8805,2.8838,2.8888,2.8903,2.892,2.8967,2.8982,2.9064,2.9053,2.9105,2.9203,2.9237,2.9268,2.938,2.9369,2.9397,2.9451,2.9501,2.9514,2.9525,2.9563,2.9577,2.9407,2.9407,2.9407,0,2.8744,2.8833,2.8842,2.8907,2.8941,2.893,2.9,2.9032,2.9097,2.912,2.9098,2.9219,2.9251,2.9349,2.9376,2.9402,2.942,2.9391,2.9511,2.9522,2.9533,2.957,2.9584,2.941,2.9409,2.9409,2.9409,0,2.8882,2.8944,2.8995,2.9057,2.9097,2.9165,2.9183,2.9222,2.9222,2.9239,2.9322,2.9359,2.942,2.9444,2.9445,2.9542,2.9528,2.9509,2.9468,2.955,2.9585,2.96,2.9414,2.9413,2.9412,2.9411,0,0,2.9009,2.9074,2.9092,2.912,2.9173,2.922,2.9287,2.9346,2.9378,2.9423,2.9478,2.9561,2.9542,2.9576,2.9581,2.9625,2.971,2.96,2.9601,2.9618,2.9818,2.9832,2.9848,2.9703,2.9706,2.9708,2.9813,0,2.9115,2.9232,2.9241,2.9346,2.9403,2.9391,2.9449,2.9487,2.9505,2.9555,2.9575,2.9632,2.9604,2.9624,2.9668,2.969,2.975,2.9683,2.9754,2.9756,2.9741,2.9867,2.9882,2.998,2.9827,2.9829,2.9831,0,2.9254,2.9302,2.9413,2.9456,2.948,2.9532,2.9585,2.9634,2.9676,2.9686,2.9723,2.9721,2.9789,2.9745,2.9838,2.9792,2.9821,2.9836,2.984,2.9847,2.9798,2.9876,3.0011,3.0025,2.9853,2.9851,2.985,0,2.9334,2.9426,2.9504,2.9528,2.958,2.9617,2.964,2.968,2.9714,2.9761,2.9783,2.9838,2.9868,2.9909,2.9922,2.9889,3.0013,2.9971,3.0022,3.0022,3.0049,3.0047,3.019,3.0069,3.0069,3.0068,3.0068,0,2.945,2.9518,2.954,2.9588,2.9663,2.9672,2.9746,2.9768,2.9803,2.9854,2.9848,2.9896,2.991,2.996,2.997,3.0044,3.0058,3.0067,3.0069,3.0067,3.0066,3.0086,3.0079,3.0072,3.0071,3.0071,3.007,0,2.9552,2.957,2.9653,2.9696,2.9708,2.9761,2.9798,2.9843,2.9859,2.9924,2.994,2.9965,3.0024,3.004,3.0111,3.0118,3.0204,3.02,3.019,3.019,3.0239,3.0234,3.04,3.0422,3.0287,3.0288,3.0289,0,2.9625,2.9677,2.9724,2.9758,2.9783,2.9837,2.9872,2.9882,2.9918,2.997,3.0009,3.0067,3.0113,3.0207,3.0232,3.0286,3.0282,3.0337,3.029,3.0287,3.0282,3.0278,3.0283,3.0345,3.0347,3.0348,3.0349,0,2.9752,2.9757,2.9808,2.986,2.9901,2.9944,2.9984,3.0012,3.0028,3.0069,3.0128,3.0164,3.0236,3.0293,3.0346,3.037,3.0362,3.0363,3.0378,3.0376,3.0368,3.0372,3.0213,3.0359,3.0358,3.0358,3.0357,3.0357,2.9841,2.9886,2.9926,2.9981,3.0012,3.005,3.0094,3.0115,3.0165,3.0224,3.0227,3.0291,3.0331,3.0402,3.0429,3.0479,3.0462,3.0484,3.0489,3.0494,3.0497,3.036,3.0489,3.0488,3.0488,3.0488,3.0488,0,2.9966,2.9991,3.0042,3.0098,3.0141,3.0129,3.0173,3.021,3.0266,3.0304,3.035,3.0417,3.0472,3.0501,3.0555,3.0589,3.0587,3.0603,3.06,3.0606,3.0509,3.0491,3.0604,3.0604,3.0604,3.0604,3.0604,3.0604,3.0037,3.0111,3.0122,3.0211,3.0235,3.0298,3.0324,3.0358,3.0387,3.0463,3.0508,3.0526,3.056,3.0616,3.0666,3.0673,3.0692,3.0711,3.0715,3.0625,3.0613,3.0601,3.0584,3.0715,3.0715,3.0808,3.0808,3.0809]}]]